| time (UTC) | temp C | wind direction | speed KPH | gust KPH | rain 1hr cm | rain 24hr cm | rain mn cm | humidity % | barometer mb |
| 20260504215542 | 21 | 216 | 4.8 | 17.7 | 0.00 | 0.00 | 0.00 | 40 | 1008.1 |
| 20260504215043 | 21 | 205 | 6.4 | 22.5 | 0.00 | 0.00 | 0.00 | 40 | 1008.1 |
| 20260504214550 | 21 | 219 | 8.0 | 22.5 | 0.00 | 0.00 | 0.00 | 39 | 1008.0 |
| 20260504214041 | 21 | 219 | 8.0 | 27.4 | 0.00 | 0.00 | 0.00 | 41 | 1008.1 |
| 20260504213542 | 21 | 169 | 11.3 | 27.4 | 0.00 | 0.00 | 0.00 | 39 | 1008.0 |
| 20260504213056 | 22 | 235 | 8.0 | 25.7 | 0.00 | 0.00 | 0.00 | 41 | 1008.0 |
| 20260504212542 | 22 | 185 | 6.4 | 19.3 | 0.00 | 0.00 | 0.00 | 41 | 1008.0 |
| 20260504212042 | 22 | 176 | 4.8 | 17.7 | 0.00 | 0.00 | 0.00 | 42 | 1008.0 |
| 20260504211557 | 22 | 220 | 8.0 | 17.7 | 0.00 | 0.00 | 0.00 | 41 | 1008.1 |
| 20260504211041 | 21 | 183 | 3.2 | 24.1 | 0.00 | 0.00 | 0.00 | 41 | 1008.2 |
| 20260504210545 | 21 | 229 | 4.8 | 24.1 | 0.00 | 0.00 | 0.00 | 40 | 1008.1 |
| 20260504210059 | 21 | 248 | 8.0 | 25.7 | 0.00 | 0.00 | 0.00 | 40 | 1008.1 |
| 20260504205544 | 21 | 203 | 9.7 | 25.7 | 0.00 | 0.00 | 0.00 | 39 | 1008.2 |
| 20260504205041 | 21 | 215 | 4.8 | 17.7 | 0.00 | 0.00 | 0.00 | 42 | 1008.0 |
| 20260504204551 | 21 | 238 | 8.0 | 22.5 | 0.00 | 0.00 | 0.00 | 40 | 1008.1 |
| 20260504204041 | 21 | 220 | 8.0 | 24.1 | 0.00 | 0.00 | 0.00 | 40 | 1008.2 |
| 20260504203541 | 22 | 226 | 6.4 | 24.1 | 0.00 | 0.00 | 0.00 | 41 | 1008.2 |
| 20260504203046 | 22 | 223 | 3.2 | 30.6 | 0.00 | 0.00 | 0.00 | 39 | 1008.2 |
| 20260504202542 | 22 | 185 | 3.2 | 30.6 | 0.00 | 0.00 | 0.00 | 41 | 1008.3 |
| 20260504202042 | 21 | 216 | 8.0 | 22.5 | 0.00 | 0.00 | 0.00 | 40 | 1008.4 |
| 20260504201552 | 22 | 212 | 9.7 | 22.5 | 0.00 | 0.00 | 0.00 | 40 | 1008.4 |
| 20260504201041 | 22 | 234 | 6.4 | 16.1 | 0.00 | 0.00 | 0.00 | 40 | 1008.6 |
| 20260504200541 | 22 | 246 | 3.2 | 29.0 | 0.00 | 0.00 | 0.00 | 42 | 1008.5 |
| 20260504200101 | 21 | 228 | 6.4 | 32.2 | 0.00 | 0.00 | 0.00 | 39 | 1008.6 |
| 20260504195542 | 21 | 202 | 12.9 | 32.2 | 0.00 | 0.00 | 0.00 | 39 | 1008.8 |
| 20260504195041 | 21 | 156 | 9.7 | 22.5 | 0.00 | 0.00 | 0.00 | 39 | 1008.7 |
| 20260504194550 | 22 | 240 | 4.8 | 24.1 | 0.00 | 0.00 | 0.00 | 39 | 1008.8 |
| 20260504194041 | 21 | 200 | 8.0 | 24.1 | 0.00 | 0.00 | 0.00 | 38 | 1008.8 |
| 20260504193542 | 22 | 137 | 4.8 | 17.7 | 0.00 | 0.00 | 0.00 | 39 | 1008.9 |
| 20260504193050 | 21 | 238 | 6.4 | 22.5 | 0.00 | 0.00 | 0.00 | 41 | 1009.0 |
| 20260504192543 | 22 | 246 | 8.0 | 22.5 | 0.00 | 0.00 | 0.00 | 41 | 1009.2 |
| 20260504192041 | 22 | 184 | 3.2 | 29.0 | 0.00 | 0.00 | 0.00 | 42 | 1009.3 |
| 20260504191606 | 21 | 207 | 8.0 | 29.0 | 0.00 | 0.00 | 0.00 | 40 | 1009.3 |
| 20260504191041 | 22 | 201 | 6.4 | 22.5 | 0.00 | 0.00 | 0.00 | 41 | 1009.4 |
| 20260504190541 | 21 | 168 | 3.2 | 19.3 | 0.00 | 0.00 | 0.00 | 41 | 1009.5 |
| 20260504190049 | 21 | 225 | 6.4 | 19.3 | 0.00 | 0.00 | 0.00 | 40 | 1009.6 |
| 20260504185541 | 21 | 258 | 4.8 | 17.7 | 0.00 | 0.00 | 0.00 | 39 | 1009.6 |
| 20260504185042 | 21 | 228 | 6.4 | 20.9 | 0.00 | 0.00 | 0.00 | 41 | 1009.7 |
| 20260504184551 | 21 | 231 | 6.4 | 20.9 | 0.00 | 0.00 | 0.00 | 42 | 1009.9 |
| 20260504184041 | 21 | 227 | 8.0 | 20.9 | 0.00 | 0.00 | 0.00 | 42 | 1010.1 |
| 20260504183543 | 21 | 236 | 4.8 | 17.7 | 0.00 | 0.00 | 0.00 | 42 | 1010.2 |
| 20260504183047 | 21 | 214 | 4.8 | 19.3 | 0.00 | 0.00 | 0.00 | 42 | 1010.3 |
| 20260504182542 | 21 | 244 | 6.4 | 19.3 | 0.00 | 0.00 | 0.00 | 42 | 1010.4 |
| 20260504182042 | 21 | 229 | 8.0 | 19.3 | 0.00 | 0.00 | 0.00 | 45 | 1010.4 |
| 20260504181552 | 21 | 234 | 6.4 | 19.3 | 0.00 | 0.00 | 0.00 | 42 | 1010.6 |
| 20260504181043 | 21 | 244 | 6.4 | 14.5 | 0.00 | 0.00 | 0.00 | 43 | 1010.5 |
| 20260504180541 | 20 | 226 | 4.8 | 14.5 | 0.00 | 0.00 | 0.00 | 43 | 1010.6 |
| 20260504180054 | 20 | 212 | 3.2 | 22.5 | 0.00 | 0.00 | 0.00 | 41 | 1010.6 |
| 20260504175540 | 20 | 265 | 4.8 | 22.5 | 0.00 | 0.00 | 0.00 | 44 | 1010.6 |
| 20260504175041 | 20 | 196 | 6.4 | 22.5 | 0.00 | 0.00 | 0.00 | 43 | 1010.7 |
| 20260504174554 | 20 | 178 | 4.8 | 22.5 | 0.00 | 0.00 | 0.00 | 46 | 1010.6 |
| 20260504174040 | 20 | 211 | 3.2 | 17.7 | 0.00 | 0.00 | 0.00 | 46 | 1010.7 |
| 20260504173542 | 20 | 182 | 3.2 | 11.3 | 0.00 | 0.00 | 0.00 | 45 | 1010.7 |
| 20260504173052 | 20 | 210 | 4.8 | 20.9 | 0.00 | 0.00 | 0.00 | 40 | 1010.7 |
| 20260504172541 | 20 | 200 | 4.8 | 20.9 | 0.00 | 0.00 | 0.00 | 44 | 1010.8 |
| 20260504172043 | 20 | 229 | 3.2 | 11.3 | 0.00 | 0.00 | 0.00 | 41 | 1010.8 |
| 20260504171555 | 20 | 234 | 3.2 | 20.9 | 0.00 | 0.00 | 0.00 | 43 | 1010.9 |
| 20260504171041 | 20 | 203 | 3.2 | 22.5 | 0.00 | 0.00 | 0.00 | 43 | 1010.9 |
| 20260504170544 | 19 | 225 | 9.7 | 22.5 | 0.00 | 0.00 | 0.00 | 41 | 1011.1 |
| 20260504151040 | 17 | 217 | 3.2 | 14.5 | 0.00 | 0.00 | 0.00 | 42 | 1012.7 |
| 20260504150541 | 17 | 214 | 4.8 | 14.5 | 0.00 | 0.00 | 0.00 | 44 | 1012.6 |
| 20260504141043 | 16 | 217 | 3.2 | 9.7 | 0.00 | 0.00 | 0.00 | 43 | 1012.7 |
| 20260504140541 | 16 | 210 | 3.2 | 11.3 | 0.00 | 0.00 | 0.00 | 43 | 1012.8 |
| 20260504130543 | 13 | 202 | 4.8 | 17.7 | 0.00 | 0.00 | 0.00 | 50 | 1012.8 |
| 20260504120117 | 11 | 190 | 3.2 | 11.3 | 0.00 | 0.00 | 0.00 | 57 | 1013.0 |
| 20260504110541 | 8 | 205 | 3.2 | 9.7 | 0.00 | 0.00 | 0.00 | 57 | 1013.0 |
| 20260504100541 | 8 | 165 | 4.8 | 8.0 | 0.00 | 0.00 | 0.00 | 53 | 1013.2 |
| 20260504081554 | 8 | 208 | 1.6 | 4.8 | 0.00 | 0.00 | 0.00 | 53 | 1013.6 |
| 20260504081042 | 8 | 208 | 1.6 | 8.0 | 0.00 | 0.00 | 0.00 | 53 | 1013.5 |
| 20260504080541 | 8 | 203 | 3.2 | 8.0 | 0.00 | 0.00 | 0.00 | 53 | 1013.6 |
| 20260504050541 | 8 | 192 | 4.8 | 8.0 | 0.00 | 0.00 | 0.00 | 51 | 1014.0 |
| 20260504045541 | 8 | 180 | 3.2 | 8.0 | 0.00 | 0.00 | 0.00 | 51 | 1014.0 |
| 20260504045041 | 8 | 154 | 4.8 | 8.0 | 0.00 | 0.00 | 0.00 | 51 | 1014.1 |
| 20260504044553 | 8 | 186 | 3.2 | 8.0 | 0.00 | 0.00 | 0.00 | 51 | 1014.0 |
| 20260504044041 | 8 | 184 | 1.6 | 6.4 | 0.00 | 0.00 | 0.00 | 52 | 1014.0 |
| 20260504043542 | 8 | 194 | 1.6 | 6.4 | 0.00 | 0.00 | 0.00 | 52 | 1014.0 |
| 20260504043110 | 8 | 205 | 3.2 | 6.4 | 0.00 | 0.00 | 0.00 | 52 | 1013.9 |
| 20260504042541 | 8 | 187 | 3.2 | 6.4 | 0.00 | 0.00 | 0.00 | 52 | 1013.9 |
| 20260504042040 | 8 | 194 | 3.2 | 6.4 | 0.00 | 0.00 | 0.00 | 51 | 1014.0 |
| 20260504041547 | 8 | 189 | 3.2 | 6.4 | 0.00 | 0.00 | 0.00 | 51 | 1014.0 |
| 20260504041040 | 8 | 196 | 1.6 | 6.4 | 0.00 | 0.00 | 0.00 | 51 | 1013.9 |
| 20260504040541 | 8 | 198 | 1.6 | 6.4 | 0.00 | 0.00 | 0.00 | 52 | 1013.8 |
| 20260504040055 | 8 | 208 | 3.2 | 6.4 | 0.00 | 0.00 | 0.00 | 52 | 1013.9 |
| 20260504035542 | 8 | 205 | 3.2 | 9.7 | 0.00 | 0.00 | 0.00 | 52 | 1013.9 |
| 20260504035042 | 8 | 188 | 4.8 | 9.7 | 0.00 | 0.00 | 0.00 | 51 | 1013.9 |
| 20260504034551 | 8 | 186 | 6.4 | 9.7 | 0.00 | 0.00 | 0.00 | 51 | 1013.8 |
| 20260504034041 | 8 | 184 | 4.8 | 8.0 | 0.00 | 0.00 | 0.00 | 51 | 1013.8 |
| 20260504033541 | 8 | 194 | 4.8 | 8.0 | 0.00 | 0.00 | 0.00 | 51 | 1013.8 |
| 20260504033101 | 9 | 184 | 3.2 | 8.0 | 0.00 | 0.00 | 0.00 | 51 | 1013.8 |
| 20260504032541 | 9 | 196 | 4.8 | 8.0 | 0.00 | 0.00 | 0.00 | 51 | 1013.8 |
| 20260504032041 | 9 | 185 | 3.2 | 8.0 | 0.00 | 0.00 | 0.00 | 50 | 1013.8 |
| 20260504031556 | 9 | 191 | 3.2 | 8.0 | 0.00 | 0.00 | 0.00 | 51 | 1013.7 |
| 20260504031041 | 8 | 202 | 1.6 | 4.8 | 0.00 | 0.00 | 0.00 | 51 | 1013.6 |
| 20260504030541 | 8 | 192 | 1.6 | 4.8 | 0.00 | 0.00 | 0.00 | 52 | 1013.7 |
| 20260504025541 | 9 | 196 | 0.0 | 3.2 | 0.00 | 0.00 | 0.00 | 51 | 1013.6 |
| 20260504025042 | 9 | 198 | 0.0 | 4.8 | 0.00 | 0.00 | 0.00 | 52 | 1013.6 |
| 20260504024547 | 9 | 193 | 1.6 | 4.8 | 0.00 | 0.00 | 0.00 | 50 | 1013.6 |
| 20260504024041 | 9 | 196 | 0.0 | 6.4 | 0.00 | 0.00 | 0.00 | 50 | 1013.5 |
| 20260504023541 | 9 | 196 | 1.6 | 6.4 | 0.00 | 0.00 | 0.00 | 50 | 1013.6 |
| 20260504023044 | 9 | 177 | 1.6 | 4.8 | 0.00 | 0.00 | 0.00 | 50 | 1013.6 |
| 20260504022543 | 9 | 173 | 0.0 | 4.8 | 0.00 | 0.00 | 0.00 | 51 | 1013.5 |
| 20260504022042 | 10 | 182 | 0.0 | 4.8 | 0.00 | 0.00 | 0.00 | 50 | 1013.5 |
| 20260504021552 | 10 | 0 | 1.6 | 4.8 | 0.00 | 0.00 | 0.00 | 49 | 1013.4 |
| 20260504021043 | 10 | 0 | 1.6 | 4.8 | 0.00 | 0.00 | 0.00 | 49 | 1013.5 |
| 20260504020542 | 9 | 186 | 1.6 | 4.8 | 0.00 | 0.00 | 0.00 | 51 | 1013.5 |
| 20260504020105 | 9 | 158 | 1.6 | 4.8 | 0.00 | 0.00 | 0.00 | 51 | 1013.5 |
| 20260504015541 | 9 | 150 | 1.6 | 6.4 | 0.00 | 0.00 | 0.00 | 52 | 1013.5 |
| 20260504015041 | 10 | 148 | 1.6 | 6.4 | 0.00 | 0.00 | 0.00 | 52 | 1013.4 |
| 20260504014605 | 10 | 183 | 0.0 | 3.2 | 0.00 | 0.00 | 0.00 | 50 | 1013.4 |
| 20260504014040 | 10 | 0 | 0.0 | 1.6 | 0.00 | 0.00 | 0.00 | 48 | 1013.4 |
| 20260504013545 | 10 | 0 | 0.0 | 1.6 | 0.00 | 0.00 | 0.00 | 48 | 1013.3 |
| 20260504013055 | 10 | 0 | 0.0 | 3.2 | 0.00 | 0.00 | 0.00 | 47 | 1013.4 |
| 20260504012541 | 10 | 0 | 0.0 | 4.8 | 0.00 | 0.00 | 0.00 | 47 | 1013.3 |
| 20260504012041 | 10 | 0 | 0.0 | 4.8 | 0.00 | 0.00 | 0.00 | 47 | 1013.3 |
| 20260504011552 | 10 | 189 | 1.6 | 4.8 | 0.00 | 0.00 | 0.00 | 47 | 1013.2 |
| 20260504011044 | 10 | 198 | 1.6 | 3.2 | 0.00 | 0.00 | 0.00 | 48 | 1013.2 |
| 20260504010541 | 10 | 198 | 1.6 | 3.2 | 0.00 | 0.00 | 0.00 | 48 | 1013.2 |
| 20260504010058 | 11 | 201 | 0.0 | 1.6 | 0.00 | 0.00 | 0.00 | 47 | 1013.3 |
| 20260504005541 | 11 | 0 | 0.0 | 1.6 | 0.00 | 0.00 | 0.00 | 47 | 1013.3 |
| 20260504005041 | 11 | 0 | 0.0 | 1.6 | 0.00 | 0.00 | 0.00 | 46 | 1013.1 |
| 20260504004548 | 11 | 0 | 0.0 | 3.2 | 0.00 | 0.00 | 0.00 | 47 | 1013.1 |
| 20260504004041 | 11 | 0 | 0.0 | 4.8 | 0.00 | 0.00 | 0.00 | 46 | 1013.0 |
| 20260504003541 | 11 | 0 | 1.6 | 4.8 | 0.00 | 0.00 | 0.00 | 45 | 1013.1 |
| 20260504003045 | 11 | 193 | 0.0 | 4.8 | 0.00 | 0.00 | 0.00 | 44 | 1013.0 |
| 20260504002540 | 11 | 0 | 0.0 | 0.0 | 0.00 | 0.00 | 0.00 | 44 | 1012.9 |
| 20260504002041 | 12 | 0 | 0.0 | 3.2 | 0.00 | 0.00 | 0.00 | 43 | 1012.9 |
| 20260504001553 | 12 | 0 | 0.0 | 3.2 | 0.00 | 0.00 | 0.00 | 43 | 1012.8 |
| 20260504001043 | 12 | 0 | 0.0 | 3.2 | 0.00 | 0.00 | 0.00 | 42 | 1012.8 |
| 20260504000541 | 12 | 290 | 0.0 | 3.2 | 0.00 | 0.00 | 0.00 | 42 | 1012.7 |
| 20260504000046 | 12 | 0 | 0.0 | 1.6 | 0.00 | 0.00 | 0.00 | 41 | 1012.7 |
| 20260503235541 | 12 | 0 | 0.0 | 3.2 | 0.00 | 0.00 | 0.00 | 41 | 1012.6 |
| 20260503235042 | 13 | 0 | 0.0 | 3.2 | 0.00 | 0.00 | 0.00 | 40 | 1012.6 |
| 20260503234550 | 13 | 290 | 1.6 | 8.0 | 0.00 | 0.00 | 0.00 | 40 | 1012.5 |
| 20260503234042 | 13 | 0 | 1.6 | 8.0 | 0.00 | 0.00 | 0.00 | 40 | 1012.4 |
| 20260503233542 | 13 | 286 | 3.2 | 14.5 | 0.00 | 0.00 | 0.00 | 39 | 1012.4 |
| 20260503233047 | 13 | 288 | 3.2 | 14.5 | 0.00 | 0.00 | 0.00 | 39 | 1012.4 |
| 20260503232543 | 13 | 275 | 4.8 | 12.9 | 0.00 | 0.00 | 0.00 | 38 | 1012.3 |
| 20260503232041 | 13 | 295 | 1.6 | 4.8 | 0.00 | 0.00 | 0.00 | 38 | 1012.2 |
| 20260503231552 | 13 | 283 | 1.6 | 4.8 | 0.00 | 0.00 | 0.00 | 38 | 1012.2 |
| 20260503231042 | 13 | 287 | 1.6 | 4.8 | 0.00 | 0.00 | 0.00 | 37 | 1012.2 |
| 20260503230541 | 13 | 275 | 1.6 | 14.5 | 0.00 | 0.00 | 0.00 | 37 | 1012.2 |
| 20260503230109 | 13 | 239 | 1.6 | 14.5 | 0.00 | 0.00 | 0.00 | 38 | 1012.3 |
| 20260503225542 | 13 | 254 | 4.8 | 12.9 | 0.00 | 0.00 | 0.00 | 39 | 1012.3 |
| 20260503225041 | 14 | 281 | 3.2 | 17.7 | 0.00 | 0.00 | 0.00 | 38 | 1012.3 |
| 20260503224550 | 14 | 274 | 3.2 | 17.7 | 0.00 | 0.00 | 0.00 | 38 | 1012.4 |
| 20260503224043 | 14 | 288 | 6.4 | 17.7 | 0.00 | 0.00 | 0.00 | 37 | 1012.5 |
| 20260503223541 | 14 | 278 | 4.8 | 17.7 | 0.00 | 0.00 | 0.00 | 38 | 1012.4 |
| 20260503223102 | 14 | 312 | 9.7 | 19.3 | 0.00 | 0.00 | 0.00 | 37 | 1012.4 |
| 20260503222543 | 14 | 308 | 9.7 | 24.1 | 0.00 | 0.00 | 0.00 | 35 | 1012.4 |
| 20260503222040 | 14 | 316 | 8.0 | 24.1 | 0.00 | 0.00 | 0.00 | 37 | 1012.4 |
| 20260503221552 | 14 | 275 | 8.0 | 16.1 | 0.00 | 0.00 | 0.00 | 35 | 1012.3 |
| 20260503221040 | 14 | 337 | 4.8 | 20.9 | 0.00 | 0.00 | 0.00 | 37 | 1012.4 |
| 20260503220541 | 14 | 277 | 6.4 | 27.4 | 0.00 | 0.00 | 0.00 | 37 | 1012.4 |
| 20260503220055 | 14 | 304 | 4.8 | 27.4 | 0.00 | 0.00 | 0.00 | 36 | 1012.6 |